Probability
0 0 0 0 0 0 0 0 0 0 0 0 0 0 0 0 0 0 0 0 0 0 0 0 0 0 0 0 0 0 0 0 1 0 0 0 0 0 0 0 0 0 0
0 0 0 0 0 0 0 0 0 0 0 0 0 0 0 0 0 0 0 0 0 0 0 0 0 0 0 0 0 0 0 0 1 0 0 0 0 0 0 0 0 0 0
0 0 0 0 0 0 0 0 0 0 0 0 0 0 0 0 0 0 0 0 0 0 0 0 1 1 0 0 0 0 0 0 0 0 0 0 0 0 0 0 0 0 0
0 0 0 0 0 0 0 0 0 0 0 0 0 0 0 0 0 0 0 0 0 0 0 0 1 1 0 0 0 0 0 0 0 0 0 0 0 0 0 0 0 0 1
0 0 0 0 0 0 0 0 0 0 0 0 0 0 0 0 0 0 0 0 0 0 0 0 1 1 0 0 0 0 0 0 0 0 0 0 0 0 0 0 0 0 1
0 0 0 0 0 0 0 0 0 0 0 0 0 0 0 0 0 0 0 0 0 0 0 0 0 0 0 0 0 0 0 0 0 0 0 0 0 0 0 0 0 0 1
0 0 0 0 0 0 0 0 0 0 0 0 0 0 0 0 0 0 0 0 0 0 0 0 0 0 0 0 0 0 0 0 0 0 0 0 0 0 0 0 0 0 0
0 0 0 0 0 0 0 0 0 0 0 0 0 0 0 0 0 0 0 0 0 0 0 0 0 0 0 0 0 0 0 0 0 0 0 0 0 0 0 0 0 0 0
0 0 0 0 0 0 0 1 2 1 0 0 0 0 0 0 0 0 0 0 0 0 0 0 0 0 0 0 0 0 0 0 0 0 0 0 0 0 0 0 0 0 0
0 0 0 0 0 0 1 2 3 2 1 0 0 0 0 0 0 0 0 0 0 0 0 0 0 0 0 0 0 0 0 0 0 0 0 0 0 0 0 0 0 0 0
0 0 0 0 0 0 1 2 2 2 1 0 0 0 0 0 0 0 0 0 0 0 0 0 0 0 0 0 0 0 0 0 0 0 0 0 0 0 0 0 0 0 0
0 0 0 0 0 0 1 1 1 1 0 0 0 0 0 0 0 0 0 0 0 0 0 0 0 0 0 0 0 0 0 0 0 0 0 0 0 0 0 0 0 0 1
0 0 0 0 0 0 0 0 0 0 0 0 0 0 0 0 0 0 0 0 0 0 0 0 0 0 0 0 0 0 0 0 0 0 0 0 0 0 0 0 0 0 1
0 0 0 0 0 0 0 0 0 0 0 0 0 0 0 0 0 0 0 0 0 0 0 0 0 0 0 0 0 0 0 0 0 0 0 0 0 1 1 0 0 0 1
0 0 0 0 0 0 0 0 0 0 0 0 0 0 0 0 0 0 0 0 0 0 0 0 0 0 0 0 0 0 0 0 0 0 0 0 0 2 3 1 0 0 0
0 0 0 0 0 0 0 0 0 0 0 0 0 0 0 0 0 0 0 0 0 0 0 0 0 0 0 0 0 0 0 0 1 1 1 1 1 2 3 2 1 0 0
0 0 0 0 0 0 0 0 0 0 0 0 0 0 0 0 0 0 0 0 0 0 0 0 0 0 0 0 0 0 0 0 1 2 2 1 1 1 1 1 1 0 0
0 0 0 0 0 0 0 0 0 0 0 0 0 0 0 0 0 0 0 0 0 0 0 0 0 0 0 0 0 0 0 0 1 1 1 1 0 0 0 0 0 0 0
0 0 0 0 0 0 0 0 0 0 0 0 0 0 0 0 0 0 0 0 0 0 0 0 0 0 0 0 0 0 0 0 0 0 0 0 0 0 0 0 0 0 0
0 0 0 0 0 0 0 0 0 0 0 0 0 0 0 0 0 0 0 0 0 0 0 0 0 0 0 0 0 0 0 0 0 0 0 0 0 0 0 0 0 0 0
0 0 0 0 0 0 0 0 0 0 0 0 0 0 0 0 0 0 0 0 0 0 0 0 0 0 0 0 0 0 0 0 0 0 0 0 0 0 0 0 0 0 0
0 0 0 0 0 0 0 0 0 0 0 0 0 0 0 0 0 0 0 0 0 0 0 0 0 0 0 0 0 0 0 0 0 0 0 0 0 0 0 0 0 0 0
0 0 0 0 0 0 0 0 0 0 0 0 0 0 0 0 0 0 0 0 0 0 0 0 0 0 0 0 0 0 0 0 0 0 0 0 0 0 0 0 0 0 0
0 0 0 0 0 0 0 0 0 0 0 0 0 0 0 0 0 0 0 0 0 0 0 0 0 0 1 2 1 1 0 0 0 0 0 0 0 0 0 0 0 0 0
0 0 0 0 0 0 0 0 0 0 0 0 0 0 0 0 0 0 0 0 0 0 0 0 0 0 1 2 2 2 1 0 0 0 0 0 0 0 0 0 0 0 0
0 0 0 0 0 0 0 0 0 0 0 0 0 0 0 0 0 0 0 0 0 0 0 0 0 0 1 2 3 3 2 1 0 0 0 0 0 0 0 0 0 0 0
Wind_Speed
4 5 7 6 7 7 7 7 7 7 8 8 8 8 8 8 8 8 8 8 9 9 9 9 8 8 8 8 9 9 8 9 8 8 7 7 7 7 7 5 3 6 8
4 5 7 6 7 7 7 7 7 7 8 8 7 8 8 8 8 8 8 8 9 9 9 8 8 8 8 9 9 9 9 9 9 8 6 7 7 7 7 6 6 6 7
4 5 6 7 7 7 7 7 7 8 8 8 7 7 7 8 8 8 8 8 9 9 9 8 8 8 9 9 9 9 9 9 8 6 2 4 7 7 7 7 7 7 6
5 5 6 7 7 6 7 8 8 8 8 8 8 8 8 8 8 8 8 8 8 8 8 8 8 8 8 9 9 9 9 8 6 1 2 5 6 9 7 7 7 7 6
5 5 6 5 6 6 6 7 7 8 9 9 9 8 8 8 8 8 9 8 8 8 8 8 8 8 8 9 9 9 9 7 4 2 5 5 6 8 7 7 7 7 7
5 5 7 5 6 6 6 6 7 8 8 8 8 8 8 7 7 8 8 8 8 8 8 8 7 8 8 9 9 9 8 5 2 5 5 5 6 8 7 7 7 8 7
6 6 8 7 6 6 7 7 7 8 8 8 8 9 8 7 7 8 8 8 8 8 8 8 8 8 9 9 9 9 7 3 4 5 5 6 7 8 8 8 8 8 7
6 5 7 8 7 6 6 7 7 7 8 9 9 9 9 8 8 9 9 9 8 8 8 8 8 8 9 9 9 8 7 4 4 5 6 7 9 8 8 7 7 7 7
5 5 5 6 7 6 6 6 7 8 9 9 10 10 10 9 8 8 9 9 8 8 8 9 8 9 9 9 8 8 7 5 3 4 5 6 8 8 8 8 7 7 7
5 5 5 5 5 6 7 8 8 8 9 9 9 9 8 8 8 7 9 9 9 9 9 9 8 8 8 8 8 7 4 1 4 5 4 7 8 8 8 7 7 7 7
4 4 4 5 5 5 6 7 6 7 7 6 8 7 3 5 6 6 10 9 9 9 8 8 8 8 7 7 7 4 1 3 5 4 5 9 8 8 8 7 7 6 7
5 4 4 5 5 5 4 4 4 5 5 4 5 5 4 5 5 6 9 9 8 7 7 8 7 5 2 4 5 2 2 4 4 5 6 10 8 8 8 7 7 6 6
4 4 4 4 4 4 3 3 3 3 3 4 5 5 3 4 4 4 3 5 5 4 4 5 3 3 3 4 3 4 5 4 4 5 8 10 9 8 8 8 7 7 7
4 4 4 4 4 4 4 3 3 3 3 3 3 4 3 3 3 4 2 3 3 3 3 3 3 4 5 5 5 5 6 4 4 4 7 11 10 9 9 9 9 9 8
3 4 4 3 3 4 4 2 2 3 3 4 3 3 4 3 3 3 3 3 3 3 3 3 4 5 5 5 5 6 6 6 6 5 5 11 11 11 11 10 10 10 9
4 4 4 3 3 3 3 2 3 3 3 3 3 3 4 3 3 2 3 3 3 3 3 3 4 4 4 4 6 6 6 6 6 5 5 6 10 12 12 11 11 10 10
3 3 3 2 2 2 3 3 2 2 3 3 3 3 4 3 3 3 3 3 3 3 4 4 5 4 4 4 5 6 6 6 6 6 5 4 6 10 12 12 12 12 11
3 3 4 2 2 3 2 2 2 2 3 2 2 2 3 3 4 3 3 3 3 3 3 3 3 4 4 4 4 4 4 4 6 6 5 5 5 5 9 12 12 12 12
3 3 4 4 3 3 3 2 2 2 2 2 2 2 2 3 3 3 3 3 3 2 3 3 3 3 4 4 4 4 4 4 4 5 6 6 6 5 5 7 9 11 12
4 3 4 4 3 3 2 2 3 3 2 2 2 2 3 2 3 3 3 3 3 2 2 3 4 3 3 3 4 4 4 4 4 4 5 5 5 6 6 5 4 7 11
5 4 4 5 4 3 2 2 2 2 2 2 2 3 2 2 2 3 2 3 2 2 3 4 3 4 3 2 2 3 4 4 4 4 4 4 5 5 5 5 4 4 4
6 5 5 5 4 3 1 1 1 2 2 2 2 2 2 2 2 2 2 2 2 2 3 3 3 2 2 1 0 1 2 3 3 4 3 3 4 4 4 5 5 5 5
6 6 4 5 5 4 3 1 2 2 2 2 2 2 1 2 2 2 2 2 2 2 2 3 3 2 1 1 1 2 1 2 2 3 4 3 4 4 4 4 5 5 5
6 5 6 6 5 4 4 2 2 2 1 2 2 2 2 2 2 2 2 1 1 1 2 2 2 1 1 1 1 1 2 2 0 2 2 3 4 4 4 3 4 5 5
6 5 5 5 5 4 3 3 3 2 1 1 1 2 2 2 2 2 2 1 1 1 1 1 1 2 2 1 0 1 1 0 1 0 1 2 2 2 3 3 3 4 5
6 6 6 6 5 4 4 4 3 3 2 2 2 2 2 2 2 2 2 2 1 1 1 2 2 2 1 1 1 0 1 1 0 0 1 1 2 2 3 3 3 3 3
Wind_Direction
34 46 61 55 67 68 66 74 82 83 86 93 93 94 93 94 96 94 91 91 89 91 94 96 94 94 93 93 92 88 86 86 90 89 84 83 84 87 85 85 97 96 82
42 58 67 65 70 68 68 71 83 85 92 95 95 96 94 93 94 92 89 87 86 89 91 90 92 90 90 88 87 86 83 81 81 83 89 97 86 82 81 71 46 65 73
56 66 76 70 71 75 75 75 82 86 91 93 95 100 99 95 93 93 88 86 84 87 87 85 85 88 87 84 82 82 79 77 79 83 122 100 95 82 78 72 67 67 67
65 67 66 70 75 77 79 80 85 86 87 88 93 98 100 96 95 93 88 86 83 82 85 85 83 84 84 84 82 81 78 74 73 55 82 72 81 80 73 70 68 66 62
74 75 76 75 84 82 84 83 87 86 85 82 86 91 98 98 97 95 90 85 80 76 80 83 86 86 83 82 82 82 83 82 81 71 69 65 68 72 70 71 69 67 63
79 81 82 76 81 79 84 81 83 88 86 83 82 88 96 99 100 97 94 89 83 76 78 82 89 90 86 83 83 82 86 88 126 76 72 72 74 72 68 68 68 67 64
75 74 84 80 77 76 81 80 78 87 89 87 82 80 87 91 92 91 90 90 85 81 78 77 80 85 83 83 84 81 80 65 67 79 73 69 69 67 65 65 62 62 58
79 78 88 98 82 75 76 78 83 87 88 86 81 78 80 82 85 86 88 89 87 85 86 79 77 80 81 82 80 76 63 18 73 66 68 69 67 64 64 63 60 58 52
81 79 79 93 106 104 88 79 81 83 83 83 82 81 80 79 81 86 88 83 83 85 86 83 76 75 79 80 77 75 67 32 47 61 63 65 67 62 61 59 57 54 51
84 78 78 80 85 98 104 88 78 78 79 81 82 80 88 97 92 94 93 81 78 83 86 86 84 82 82 81 78 75 66 21 52 59 57 68 64 59 57 59 57 54 51
95 87 85 86 87 90 88 93 95 95 91 101 100 96 106 96 94 100 79 80 77 81 87 87 89 92 94 94 85 78 61 48 60 55 57 64 59 55 56 59 56 56 54
104 94 93 92 90 92 87 94 91 86 86 79 77 81 78 80 79 86 99 88 84 86 98 91 95 114 131 101 101 111 64 56 55 61 64 62 55 52 54 57 56 56 57
99 97 92 93 91 89 92 80 79 81 82 82 80 85 83 90 103 95 101 111 102 103 94 103 114 85 78 71 55 60 51 47 50 51 58 54 49 47 50 54 54 57 58
107 98 94 92 99 92 86 84 84 85 85 81 79 77 80 82 83 85 83 82 86 82 76 78 74 81 78 81 75 65 61 52 50 54 57 48 44 45 50 52 56 57 57
122 119 105 94 88 90 81 83 92 84 79 87 74 73 79 81 79 84 89 83 76 77 89 83 85 82 78 72 66 63 60 56 52 50 66 53 45 45 45 51 56 57 57
139 123 116 117 105 107 111 103 84 85 97 85 78 75 78 79 82 83 86 83 80 79 78 90 92 88 83 74 68 62 56 56 56 54 59 74 61 47 45 48 52 52 52
137 125 114 111 109 103 96 85 76 88 93 87 80 76 81 76 80 82 77 84 85 93 96 93 94 89 87 87 78 69 62 50 51 53 51 50 69 65 50 45 47 48 47
149 136 130 134 124 103 106 117 102 91 99 97 88 75 82 91 87 85 88 85 89 94 96 96 93 93 87 81 77 70 69 62 52 47 50 53 49 55 64 50 44 44 44
161 159 143 132 122 113 116 129 113 105 102 103 102 88 85 87 95 101 91 96 102 96 95 102 99 95 93 86 82 76 67 63 57 48 48 50 55 52 56 66 55 47 41
165 172 150 135 137 126 136 131 117 112 106 101 103 108 93 96 95 98 113 120 109 102 101 104 102 96 95 95 87 81 74 70 62 51 42 47 46 49 47 43 48 61 49
173 178 160 160 146 139 145 156 142 128 115 110 101 99 117 122 113 103 115 106 111 116 125 129 122 119 115 118 121 110 98 79 63 57 45 46 54 47 45 43 37 34 54
174 180 172 160 154 148 143 146 125 114 112 93 114 127 136 135 127 125 136 133 133 135 144 140 142 135 126 167 271 170 140 123 85 63 59 53 51 52 44 44 44 42 34
180 182 175 162 158 156 157 151 138 139 157 147 139 128 116 120 134 155 139 142 148 158 154 166 169 170 160 169 332 320 318 75 97 96 66 63 50 45 43 37 42 40 38
181 181 177 163 165 159 167 184 182 187 170 141 134 134 144 134 147 163 158 172 165 171 171 186 184 201 204 177 125 3 6 35 261 124 108 78 60 49 40 39 38 35 33
174 174 177 163 165 165 179 180 209 186 162 146 154 149 157 137 151 163 170 179 190 189 205 214 199 226 221 250 292 114 87 125 275 268 117 118 97 65 47 38 41 35 32
173 173 176 172 166 165 182 191 198 187 193 187 188 165 168 147 149 150 181 194 201 200 211 216 213 220 249 274 284 251 247 261 222 220 148 135 106 85 69 52 40 45 39